Regional Weather Roundup
Issued by NWS

Home | Current Version | Previous Version | Graphics & Text | Print | Product List | Glossary On
Versions: 1 2 3 4 5 6 7 8 9 10 11 12 13 14 15 16 17 18 19 20 21 22 23 24 25 26 27 28 29 30 31 32 33 34 35 36 37 38 39 40 41 42 43 44 45 46 47 48 49 50
552
ASUS43 KDMX 240801
RWRIA

WEATHER ROUNDUP FOR IOWA
NATIONAL WEATHER SERVICE DES MOINES IA
300 AM CDT MON JUL 24 2017

NOTE: "FAIR" INDICATES FEW OR NO CLOUDS BELOW 12,000 FEET WITH NO
SIGNIFICANT WEATHER AND/OR OBSTRUCTIONS TO VISIBILITY.

* - THESE STATIONS ARE NOT NWS STATIONS...THUS NOT UNDER NWS
QUALITY CONTROL.  THEY ALSO DO NOT REPORT WEATHER SUCH
AS PRECIPITATION OR FOG.

IAZ001>003-012>014-020>022-031>034-043>046-240900-
   NORTHWEST IOWA

CITY           SKY/WX    TMP DP  RH WIND       PRES   REMARKS
CARROLL *      CLEAR     61  61 100 NW3       30.01S
CHEROKEE *     CLEAR     58  58 100 CALM      30.02F
DENISON *      CLEAR     61  61 100 CALM      30.03S
ORANGE CITY *  CLEAR     63  59  88 NE3       30.02F
SHELDON *      CLEAR     54  54 100 CALM      30.01F
SIOUX CITY     CLEAR     59  58  96 CALM      30.02S
SPENCER        CLEAR     55  55 100 CALM      30.03S FOG
STORM LAKE *   CLEAR     61  57  88 NE5       30.02F
$$

IAZ055>058-069>071-079>083-090>094-240900-
   SOUTHWEST IOWA

CITY           SKY/WX    TMP DP  RH WIND       PRES   REMARKS
ATLANTIC *     CLEAR     59  59 100 NE3       30.00F
AUDUBON *      CLEAR     57  55  94 CALM      30.02S
CLARINDA *     CLEAR     64  64 100 NE3       30.02R
COUNCIL BLFS * CLEAR     66  63  88 NE8       30.00F
CRESTON *      CLEAR     64  59  82 NE8       30.01S
HARLAN  *      CLEAR     59  59 100 N3        30.04F
LAMONI         CLEAR     64  61  90 N5        29.99S
RED OAK *      CLEAR     63  61  94 N3        30.00S
SHENANDOAH *   CLEAR     64  63  94 NE3       30.00S
$$

IAZ047>049-059>061-072>074-084-240900-
   CENTRAL IOWA

CITY           SKY/WX    TMP DP  RH WIND       PRES   REMARKS
AMES           CLEAR     63  62  97 N5        30.00S
ANKENY *       CLEAR     61  59  94 N5        30.00S
BOONE *        CLEAR     61  59  94 N8        30.00S
CHARITON *     CLEAR     63  59  88 N5        29.99R
DES MOINES     CLEAR     67  61  81 NW6       29.98S
GRINNELL*      CLEAR     61  59  92 N3        30.00R
KNOXVILLE *    CLEAR     64  61  88 N6        29.97S
MARSHALLTOWN   CLEAR     60  59  96 N6        29.99S
NEWTON *       CLEAR     63  61  94 N8        29.99S
PELLA *          N/A     63  60  91 N3        29.99S
$$

IAZ004>006-015-016-023>025-035-036-240900-
   NORTH CENTRAL IOWA

CITY           SKY/WX    TMP DP  RH WIND       PRES   REMARKS
ALGONA *       CLEAR     59  59 100 CALM      30.03S
CLARION *      CLEAR     61  61 100 CALM      30.02S
ESTHERVILLE    CLEAR     57  57 100 CALM      30.03S
FORT DODGE *   CLEAR     61  57  88 NE3       30.02F
MASON CITY     CLEAR     56  55  97 CALM      30.04S
FOREST CITY *    N/A     59  57  94 CALM      30.03S
WEBSTER CITY * CLEAR     57  57 100 N5        29.99F
IOWA FALLS *     N/A     62  59  92 N5        30.01F
$$

IAZ007>011-017>019-026>030-037>042-050>054-066-240900-
   NORTHEAST IOWA

CITY           SKY/WX    TMP DP  RH WIND       PRES   REMARKS
CEDAR RAPIDS   CLEAR     62  62 100 VRB6      29.96R
CHARLES CITY * CLEAR     59  59 100 N5        30.01S
DECORAH *      CLEAR     59  59 100 N5        30.00R
DUBUQUE        MOCLDY    64  61  90 N8        29.97R
MONTICELLO *   CLEAR     63  61  94 CALM      29.96S
OELWEIN *        N/A    N/A N/A N/A MISG        N/A
WATERLOO       CLEAR     59  57  93 NW5       29.98S
$$

IAZ064-065-067-068-078-240900-
   EAST CENTRAL IOWA

CITY           SKY/WX    TMP DP  RH WIND       PRES   REMARKS
DAVENPORT      CLEAR     63  61  93 NW5       29.95S
IOWA CITY      CLEAR     68  61  78 N8        29.96S
MUSCATINE *    CLEAR     66  61  82 CALM      29.95R
QUAD CITIES    CLEAR     69  61  75 CALM      29.93R
$$

IAZ062-063-075>077-085>089-095>099-240900-
   SOUTHEAST IOWA

CITY           SKY/WX    TMP DP  RH WIND       PRES   REMARKS
BURLINGTON     CLEAR     66  63  90 N6        29.94R
FAIRFIELD *    CLEAR     63  59  88 NW6       29.95S
FORT MADISON * CLEAR     64  63  94 CALM      29.95S
KEOKUK *       CLEAR     66  63  88 N5        29.93S
OSKALOOSA *      N/A     61  59  93 N6        29.98R
OTTUMWA        CLEAR     63  61  93 N7        29.96S
WASHINGTON *   CLEAR     64  63  94 NW6       29.97R
$$

ABBREVIATIONS USED IN REMARKS
   TC - TEMPERATURES IN CELSIUS
  WCI - WIND CHILL INDEX
   HX - HEAT INDEX
  VSB - VISIBILITY
$$





USA.gov is the U.S. government's official web portal to all federal, state and local government web resources and services.